User: anonymous   Login
Location: Charleston
(38.3500°N, 81.6330°W)
Time: 02:42:18
(UTC-05:00)
Language:

Cosmos 1812 Rocket - Orbit

View from above orbital plane
View from above orbital plane
View from above satellite
View from above satellite

Ground track
Ground track

The orbit data is extracted from the following two-line orbital elements,

1 17296U 87003B   18022.88868387 +.00000086 +00000-0 +75517-5 0  9996
2 17296 082.5297 179.3939 0018235 212.8003 147.2082 14.83216808654590
Epoch (UTC): 22 January 2018 21:19:42
Eccentricity: 0.0018235
inclination: 82.5297°
perigee height: 606 km
apogee height: 632 km
right ascension of ascending node: 179.3939°
argument of perigee: 212.8003°
revolutions per day: 14.83216808
mean anomaly at epoch: 147.2082°
orbit number at epoch: 65459

The dashed part of the orbit path shows where the satellite is in the earth's shadow,  

DLR